STARLINK-36743, 67876

Orbit data source: Space-Track

STARLINK-36743, 67876 is a payload satellite owned by SpaceX/Seattle (US) in LEO that was launched on Fri, 20 Feb 2026 UTC via an FALCON 9 launch vehicle from the Air Force Eastern Test Range (AFETR). Payload-class satellites include a variety of spacecraft equipped with specific instruments for various scientific and technological missions. These include communications satellites like Starlink; space stations such as the ISS; scientific satellites like the Hubble; Earth observation satellites from companies like Planet Labs, Umbra, and HawkEye 360; GPS; miniature CubeSats for education and research; and military/defense satellites.

Loading next visibility...
Identifier
67876, 2026-034AC
Orbit
LEO
Country
Flag of USUS
Related business
Manufacturer
SpaceX/Seattle
Mission
Operational Commercial Communications
Bus & Motor
STARLINK V2MO, Unknown motor
Mass
575 kg wet, ~530 kg dry
Launch date (UTC)
2026-02-20 (4 months ago)
Launch vehicle
FALCON 9
Launch site
Air Force Eastern Test Range (AFETR)
Object type
Payload
Rocket body
Debris
Shape & HBR
Box + 2 Pan, 17.7 m
Radar Cross Section
36.964 m², Large (>1 m²)

Expand to show TLE details & history
Last TLE update: 16 hours ago

TLE from 16 hours ago
0 STARLINK-36743
1 67876U 26034AC  26171.17739238  .00018190  00000-0  62449-3 0  9993
2 67876  53.1590  88.4371 0001258  83.2561 276.8583 15.30214853 19721
Epoch: 2026-06-20T04:15Z
TLE epoch observation values (Epoch: 2026-06-20T04:15:26.701Z)
Latitude
-0.00002°
Longitude
116.18007°
Altitude
475.967 km
Speed
7.629 km/s
True Right ascension
05h 53m 44s
True Declination
0° 00' 00"
Sunlit
Object was in daylight at epoch
Visualization orbit readout
Latitude
Unknown
Longitude
Unknown
Altitude
Unknown
Speed
Unknown
Apparent Right ascension
Unknown
Apparent Declination
Unknown
Sunlit
N/A
Visualization observer readout
Local Sidereal Time
07:15:50
Azimuth
Unknown
Elevation
Unknown
Doppler factor
Unknown
Orbital elements
Apogee altitude
476.289 km
Perigee altitude
474.565 km
Semi-major axis
6,853.564 km
Eccentricity
0.00013
Inclination
53.159°
RAAN
88.4371°
Arg. of periapsis
83.2561°
True anomaly
276.84399°
Mean anomaly
276.8583°
Eccentric anomaly
276.85114°
Mean motion
3.82533 °/min
Orbital period
94.11 mins
BSTAR
0.00062449
Loading maneuver chart data...
Computing Atmospheric mass density...
Loading historical data...
Loading historical data...
Loading historical data...
Loading historical data...
Loading historical data...
Loading historical data...
Loading historical data...

Documentation

Showing up to 5 results
|